Terug naar catalogus

ELARA 1

ActiefWetenschapSSO
NORAD 64539·PAYLOAD·🇦🇺 Australia

Gelanceerd Jun 23, 2025 vanaf Vandenberg Space Force Base

Loading…

Volgende Passages (komende 24 uur)

TLE

VersSource: Space-Track

Epoch: Sep 14, 2026, 18:35 UTC

1 64539U 25135M   26257.77453860  .00004633  00000-0  19694-3 0  9993
2 64539  97.4871  12.9273 0001628 165.2034 194.9251 15.23540375 68513

Volg ELARA 1 in realtime met AllMySat

Download on the App Store